DW8304 Zulpich DE current weather conditions

sailwx.info

Wind from 013

Air temperature 25.0° C
Dewpoint 13.8° C

Last reported at 2018-Jul-16 07:55 UTC.
Time now 2018-Jul-16 08:52 UTC

Location: N 50°44' E 006°43'.
View on Google Maps.

See reports from other nearby stations

  
Tides and Currents Weather Stations Pressure Air Temp Water Temp Dewpoint Dewpoint Depression Visibility Wind Speed Wind Dir Waves Ship Positions
date/time (UTC)wind fromknots sea level pressurealtimeterstation pressurevisibilityair tempwater tempwave heightnotes
2018-Jul-16 07:55 013 25.0
2018-Jul-16 07:40 005 0 gusting 5 23.9
2018-Jul-16 07:25 015 23.3
2018-Jul-16 07:10 014 22.2
2018-Jul-16 06:55 022 20.6
2018-Jul-16 06:40 025 18.9
2018-Jul-16 06:25 150 17.2
2018-Jul-16 06:10 166 15.6
2018-Jul-16 05:55 090 14.4
2018-Jul-16 05:40 155 13.3
2018-Jul-16 05:25 155 12.8
2018-Jul-16 05:10 150 11.7
2018-Jul-16 04:55 150 11.1
2018-Jul-16 04:40 150 10.6
2018-Jul-16 04:25 150 10.6
2018-Jul-16 04:10 148 10.6
2018-Jul-16 03:55 146 10.6
2018-Jul-16 03:40 144 11.1
2018-Jul-16 03:25 151 11.1
2018-Jul-16 03:10 151 11.1
2018-Jul-16 02:55 151 11.1
2018-Jul-16 02:39 150 11.7
2018-Jul-16 02:24 163 11.7
2018-Jul-16 02:09 163 12.2
2018-Jul-16 01:54 163 12.2
2018-Jul-16 01:39 192 12.8
2018-Jul-16 01:24 200 12.8
2018-Jul-16 01:09 200 12.8
2018-Jul-16 00:54 200 13.3
2018-Jul-16 00:39 200 13.9
2018-Jul-16 00:24 200 13.9
2018-Jul-16 00:09 200 14.4
2018-Jul-15 23:54 200 15.0
2018-Jul-15 23:39 313 15.0
2018-Jul-15 23:24 314 15.6
2018-Jul-15 23:09 314 16.1
2018-Jul-15 22:54 314 16.1
2018-Jul-15 22:39 314 16.7
2018-Jul-15 22:24 314 16.7
2018-Jul-15 22:09 340 17.2
2018-Jul-15 21:55 340 17.8
2018-Jul-15 21:39 348 0 gusting 3 17.8
2018-Jul-15 21:24 348 3 gusting 5 18.3
2018-Jul-15 21:09 347 4 gusting 5 18.9
2018-Jul-15 20:54 345 2 gusting 3 19.4
2018-Jul-15 20:39 338 20.0
2018-Jul-15 20:24 338 21.1
2018-Jul-15 20:09 342 21.7
2018-Jul-15 19:54 005 22.2
2018-Jul-15 19:39 005 22.2
2018-Jul-15 19:24 355 2 gusting 5 23.3
2018-Jul-15 19:09 348 3 gusting 5 23.9
2018-Jul-15 18:54 325 2 gusting 5 24.4
2018-Jul-15 18:39 355 3 gusting 5 25.0
2018-Jul-15 18:24 349 4 gusting 6 25.6
2018-Jul-15 18:09 355 0 gusting 5 26.1
2018-Jul-15 17:54 345 4 gusting 6 26.7
2018-Jul-15 17:39 360 5 gusting 7 26.7
2018-Jul-15 17:24 009 6 gusting 8 27.2
2018-Jul-15 17:09 015 4 gusting 8 27.2
2018-Jul-15 16:53 341 5 gusting 7 27.2
2018-Jul-15 16:38 315 2 gusting 8 27.8
2018-Jul-15 16:23 333 3 gusting 7 27.8
2018-Jul-15 16:08 348 1 gusting 6 27.8
2018-Jul-15 15:53 350 4 gusting 7 27.8
2018-Jul-15 15:38 009 4 gusting 7 27.8
2018-Jul-15 15:23 313 3 gusting 8 28.3
2018-Jul-15 15:08 346 2 gusting 8 28.3
2018-Jul-15 14:53 281 2 gusting 7 28.3
2018-Jul-15 14:38 328 28.3
2018-Jul-15 14:23 312 3 gusting 8 28.9
2018-Jul-15 14:08 005 2 gusting 8 28.9
2018-Jul-15 13:53 054 5 gusting 8 28.9
2018-Jul-15 13:38 328 28.9
2018-Jul-15 13:23 355 4 gusting 7 28.9
2018-Jul-15 13:08 005 5 gusting 8 28.9
2018-Jul-15 12:53 173 28.3
2018-Jul-15 12:38 350 4 gusting 6 28.3
2018-Jul-15 12:23 276 0 gusting 4 28.9
2018-Jul-15 12:08 232 28.3
2018-Jul-15 11:53 311 28.3
2018-Jul-15 11:38 331 2 gusting 6 28.9
2018-Jul-15 11:23 101 28.3
2018-Jul-15 11:08 055 28.3
2018-Jul-15 10:53 360 3 gusting 6 28.3
2018-Jul-15 10:38 340 4 gusting 7 27.8
2018-Jul-15 10:23 348 4 gusting 7 27.8
2018-Jul-15 10:08 064 27.2
2018-Jul-15 09:53 030 26.7
2018-Jul-15 09:38 355 3 gusting 6 26.7
2018-Jul-15 09:23 355 1 gusting 6 26.1
2018-Jul-15 09:08 360 26.1
2018-Jul-15 08:53 013 1 gusting 6 25.6
2018-Jul-15 08:38 022 25.0
2018-Jul-15 08:23 005 2 gusting 5 25.0
2018-Jul-15 08:08 011 24.4
2018-Jul-15 07:52 350 0 gusting 2 23.9
2018-Jul-15 07:37 024 22.8
2018-Jul-15 07:22 167 22.2
2018-Jul-15 07:07 175 20.6
2018-Jul-15 06:52 175 18.9
2018-Jul-15 06:37 175 17.2
2018-Jul-15 06:22 168 16.1
2018-Jul-15 06:07 167 15.0
2018-Jul-15 05:52 167 13.9
2018-Jul-15 05:37 167 12.8
2018-Jul-15 05:22 169 12.2
2018-Jul-15 05:07 169 11.7
2018-Jul-15 04:52 169 11.1
2018-Jul-15 04:37 169 10.6
2018-Jul-15 04:22 161 10.6
2018-Jul-15 04:07 161 10.6
2018-Jul-15 03:52 161 10.6
2018-Jul-15 03:37 161 10.6
2018-Jul-15 03:22 163 11.1
2018-Jul-15 03:07 163 11.1
2018-Jul-15 02:52 163 11.1
2018-Jul-15 02:37 163 11.1
2018-Jul-15 02:22 163 11.7
2018-Jul-15 02:07 166 11.7
2018-Jul-15 01:52 180 11.7
2018-Jul-15 01:37 180 12.2
2018-Jul-15 01:22 180 12.2
2018-Jul-15 01:07 180 12.2
2018-Jul-15 00:52 180 12.8
2018-Jul-15 00:37 329 13.3
2018-Jul-15 00:21 329 13.3
2018-Jul-15 00:06 329 13.9
2018-Jul-14 23:51 329 13.9
2018-Jul-14 23:36 329 14.4
2018-Jul-14 23:21 329 14.4
2018-Jul-14 23:06 329 15.0
2018-Jul-14 22:51 329 15.6
2018-Jul-14 22:36 329 16.1
2018-Jul-14 22:21 329 16.1
2018-Jul-14 22:06 329 16.7
2018-Jul-14 21:51 329 17.2
2018-Jul-14 21:36 329 17.8
2018-Jul-14 21:21 329 18.3
2018-Jul-14 21:06 329 18.9
2018-Jul-14 20:51 329 19.4
2018-Jul-14 20:36 329 20.0
2018-Jul-14 20:21 329 20.6
2018-Jul-14 20:06 329 21.1
2018-Jul-14 19:51 329 22.2
2018-Jul-14 19:36 329 22.8
2018-Jul-14 19:21 329 22.8
2018-Jul-14 19:06 323 23.3
2018-Jul-14 18:51 331 23.9
2018-Jul-14 18:36 325 0 gusting 3 24.4
2018-Jul-14 18:21 328 25.0
2018-Jul-14 18:06 355 4 gusting 7 25.0
2018-Jul-14 17:51 311 2 gusting 6 25.6
2018-Jul-14 17:36 288 1 gusting 6 25.6
2018-Jul-14 17:21 321 26.1
2018-Jul-14 17:06 336 26.1
2018-Jul-14 16:51 318 26.1
2018-Jul-14 16:36 340 0 gusting 9 26.1
2018-Jul-14 16:21 355 26.1
2018-Jul-14 16:06 284 2 gusting 5 26.1
2018-Jul-14 15:51 350 2 gusting 6 25.6
2018-Jul-14 15:36 302 26.1
2018-Jul-14 15:21 311 25.6
2018-Jul-14 15:06 274 1 gusting 6 26.1
2018-Jul-14 14:51 329 1 gusting 6 26.1
2018-Jul-14 14:36 355 1 gusting 5 26.1
2018-Jul-14 14:21 340 0 gusting 5 26.7
2018-Jul-14 14:06 277 0 gusting 6 27.2
2018-Jul-14 13:51 286 0 gusting 9 27.8
2018-Jul-14 13:36 315 27.2
2018-Jul-14 13:21 351 2 gusting 6 27.2
2018-Jul-14 13:06 350 27.2
2018-Jul-14 12:50 290 0 gusting 7 27.2
2018-Jul-14 12:35 308 27.2
2018-Jul-14 12:20 351 27.8
2018-Jul-14 12:05 341 1 gusting 8 28.3
2018-Jul-14 11:50 059 0 gusting 5 27.8
2018-Jul-14 11:35 355 27.2
2018-Jul-14 11:20 275 27.2
2018-Jul-14 11:05 360 0 gusting 6 27.2
2018-Jul-14 10:50 009 4 gusting 6 26.7
2018-Jul-14 10:35 005 27.2
2018-Jul-14 10:20 285 26.7
2018-Jul-14 10:05 333 26.1
2018-Jul-14 09:50 319 26.1
2018-Jul-14 09:35 344 2 gusting 6 26.1
2018-Jul-14 09:20 309 25.6
2018-Jul-14 09:05 355 25.6
2018-Jul-14 08:50 332 0 gusting 3 25.0
2018-Jul-14 08:35 273 24.4
2018-Jul-14 08:20 329 24.4
2018-Jul-14 08:05 292 23.9